Regional Weather Roundup
Issued by NWS Cleveland, OH

Home | Current Version | Previous Version | Text Only | Print | Product List | Glossary On
Versions: 1 2 3 4 5 6 7 8 9 10 11 12 13 14 15 16 17 18 19 20 21 22 23 24 25 26 27 28 29 30 31 32 33 34 35 36 37 38 39 40 41 42 43 44 45 46 47 48 49 50
000
ASUS41 KCLE 271112
RWRCLE
OHIO REGIONAL WEATHER ROUNDUP
NATIONAL WEATHER SERVICE WILMINGTON, OH
700 AM EDT WED JUL 27 2016

NOTE: "FAIR" INDICATES FEW OR NO CLOUDS BELOW 12,000 FEET WITH NO
SIGNIFICANT WEATHER AND/OR OBSTRUCTIONS TO VISIBILITY.

OHZ001>008-015>018-024>027-034-035-043-044-271200-
   NORTHWEST OHIO

CITY           SKY/WX    TMP DP  RH WIND       PRES   REMARKS
DEFIANCE       FAIR      66  62  87 CALM      30.03R
FINDLAY        FAIR      66  60  81 CALM      30.02R
TOLEDO EXPRESS FAIR      63  63 100 CALM      30.03R
TOLEDO EXEC    FAIR      66  62  87 CALM      30.04R
LIMA           FAIR      66  62  87 CALM      30.03R
$$

OHZ009>014-019>023-028>033-038-089-271200-
   NORTHEAST OHIO

CITY           SKY/WX    TMP DP  RH WIND       PRES   REMARKS
CLE-HOPKINS    FAIR      65  57  75 CALM      30.04S
CLE-LAKEFRONT  FAIR      71  58  63 SE9       30.00S
CUY CO. ARPT   CLEAR    N/A N/A N/A E6        30.03
LORAIN-ELYRIA  FAIR      61  58  90 CALM      30.04R
ASHTABULA      FAIR      61  60  97 CALM      30.04R
AKRON-CANTON   FAIR      67  60  78 NE3       30.04S
WOOSTER        FAIR      63  59  87 CALM      30.05R
MANSFIELD      FAIR      67  57  70 SE3       30.04S
YOUNGSTOWN     FAIR      63  60  90 CALM      30.05R
$$

OHZ042-051>053-060>062-070>072-077>081-271200-
  SOUTHWEST OHIO

CITY           SKY/WX    TMP DP  RH WIND       PRES   REMARKS
CINC-COVINGTON MOCLDY    74  73  97 CALM      30.02R FOG
CINC-LUNKEN    FAIR      73  73 100 CALM      30.01R FOG
HAMILTON       FAIR      71  69  93 CALM      30.02R
DAYTON         MOCLDY    69  68  96 NW6       30.03R
WRIGHT-PAT AFB FAIR      71  71 100 NE3       30.02R
DAYTON GENERAL MOCLDY    72  69  90 CALM      30.02R
WILMINGTON     FOG       71  71 100 CALM      30.02R VSB 1/2
$$

OHZ036-037-039>041-045>050-054>059-063>069-073>076-082>088-271200-
  CENTRAL AND SOUTHEAST OHIO

CITY           SKY/WX    TMP DP  RH WIND       PRES   REMARKS
COLUMBUS       MOCLDY    73  63  70 E5        30.00S
OSU AIRPORT    FAIR      72  62  71 CALM      30.01S
BOLTON FIELD   FOG       70  70 100 CALM      30.02R VSB<1/4
RICKENBACK AFB FOG       72  72 100 CALM      30.00S VSB 1/4
NEWARK         FAIR      68  64  87 CALM      30.01S
MARION         MOCLDY    67  62  84 CALM      30.04R
LANCASTER      CLOUDY    72  71  97 CALM      30.01S
ZANESVILLE     FAIR      73  67  81 CALM      30.01S
NEW PHILLY     CLOUDY    74  60  61 CALM      30.03R
$$




USA.gov is the U.S. government's official web portal to all federal, state and local government web resources and services.